Location: Miss�
(46.9484°N, 0.1922°W)
Time: 03:34:16
(UTC+00:00)

Cosmos 1844 Rocket - Pass Details

Date: 02 March 2021
Orbit: 826 x 843 km, 71.0° (Epoch: 16 April)

Event Time Altitude Azimuth Distance (km) Brightness Sun altitude
Rises 20:22:16 0° 326° (NW) 3,374 6.6 -26.8°
Reaches altitude 10° 20:24:53 10° 317° (NW) 2,436 5.9 -27.2°
Maximum altitude 20:29:51 34° 254° (WSW) 1,334 4.1 -28.0°
Enters shadow 20:33:07 19° 202° (SSW) 1,894 4.5 -28.5°
